Temperature
18 18 17 17 17 16 16 15 15 14 14 14 14 14 13 13 13 13 13 13 13 13 13 13 13 13 13 13 13 13 13 13 14 14 13 14 14 14 14 14 14 14 15
18 18 17 17 17 16 16 15 15 15 14 14 14 14 14 13 13 13 13 13 13 13 13 13 13 13 13 13 13 13 13 13 13 14 13 13 13 13 14 14 14 14 14
18 18 17 17 16 16 16 15 15 15 14 14 14 14 14 14 13 13 13 13 13 13 13 13 13 13 13 13 13 13 13 13 13 13 13 13 13 13 13 13 13 14 14
18 18 17 16 16 16 16 15 15 15 15 14 14 14 14 14 14 14 13 13 13 13 13 13 13 13 13 13 13 13 13 13 13 13 13 13 13 13 13 13 13 13 13
18 17 17 16 16 16 16 16 16 15 15 14 14 14 14 14 14 14 14 13 13 13 13 13 13 13 13 13 12 12 12 13 13 13 13 13 13 13 13 13 13 13 13
17 17 16 16 16 16 16 15 15 15 15 15 14 14 14 14 14 14 14 14 13 13 13 13 13 13 13 13 13 13 13 12 13 13 13 13 13 13 13 13 13 13 13
16 16 16 16 16 16 16 15 15 15 15 15 15 15 15 14 15 14 14 14 14 14 14 13 13 13 13 13 13 13 13 13 13 13 13 13 13 13 12 12 12 13 13
15 15 15 15 15 15 15 15 15 15 15 15 15 15 15 15 15 15 14 14 14 14 14 13 13 13 13 13 13 13 12 13 13 13 12 12 12 12 12 12 12 12 12
14 14 14 14 14 14 15 15 14 15 15 15 15 15 15 15 15 15 14 14 14 14 14 14 13 13 13 13 13 12 12 12 13 13 12 12 12 12 12 12 12 12 12
13 13 13 13 13 14 14 14 14 14 14 14 14 15 15 15 15 15 15 14 14 14 14 14 14 13 13 13 13 12 12 12 12 12 12 12 12 12 12 12 12 12 12
12 12 13 13 13 13 13 13 13 13 13 13 14 14 14 14 15 15 15 14 14 14 14 14 14 14 14 13 13 13 12 12 12 12 12 12 12 11 12 12 11 11 11
12 12 12 12 12 12 12 12 12 13 13 13 13 13 13 13 14 14 15 15 14 14 14 14 14 14 14 13 13 13 13 12 12 12 12 11 11 11 11 11 11 11 11
11 11 11 11 11 11 11 11 11 12 12 12 12 12 12 13 13 14 14 14 14 14 13 13 13 14 14 13 13 13 13 12 12 12 12 12 11 11 11 11 11 11 11
10 10 10 10 10 10 10 11 11 11 11 11 11 11 11 12 12 13 13 13 14 14 13 13 13 13 13 13 13 13 12 12 12 12 12 12 11 11 11 11 11 11 10
10 10 10 10 10 10 10 10 10 10 10 10 10 10 10 11 12 12 12 12 13 13 13 12 12 12 13 12 12 12 12 12 11 11 11 11 11 11 11 10 10 10 10
9 9 9 9 9 9 9 9 9 9 10 10 10 10 10 10 11 11 12 12 12 12 12 12 12 12 12 12 12 12 12 11 11 11 11 11 11 10 10 10 10 10 10
9 9 9 8 8 8 8 8 8 9 9 9 9 10 10 10 10 11 11 11 12 12 11 11 12 12 12 12 12 12 12 11 11 11 11 11 10 10 10 10 10 9 9
8 8 8 8 8 8 8 8 7 7 8 8 8 9 9 9 10 10 11 11 11 11 11 11 11 11 12 12 12 12 11 11 11 11 11 10 10 10 10 9 9 9 9
8 8 7 7 7 7 7 7 7 7 7 7 7 8 8 8 9 9 10 10 10 10 10 11 11 11 11 11 11 11 11 11 11 11 10 10 10 10 9 9 9 9 9
8 7 7 7 7 7 7 7 7 7 7 7 7 7 7 7 8 8 8 9 9 9 10 10 10 10 11 11 11 11 11 11 10 10 10 10 10 9 9 9 9 9 8
7 7 7 6 6 7 6 6 6 6 6 6 6 6 6 6 6 7 7 8 8 9 9 9 9 10 10 10 10 10 10 10 10 10 10 9 9 9 9 9 8 8 8
7 7 6 6 6 6 6 6 6 6 6 6 6 6 6 6 6 6 7 7 7 8 8 9 9 9 10 10 10 10 10 10 10 9 9 9 9 9 9 8 8 8 7
6 6 6 6 6 6 5 5 5 5 5 5 5 5 5 5 5 5 6 6 7 7 7 8 8 8 9 9 9 10 9 9 9 9 9 9 9 8 8 8 8 7 7
6 6 6 6 6 5 5 5 5 5 5 5 5 5 4 4 4 5 5 5 6 6 6 7 7 8 8 9 9 9 9 9 9 9 9 9 9 8 8 8 8 7 7
6 6 5 5 5 5 5 5 5 5 5 4 4 4 4 4 4 4 4 5 5 5 6 6 7 7 8 8 8 8 9 9 9 8 8 8 8 8 8 7 7 7 6
5 5 5 5 5 5 4 4 4 4 4 4 4 4 3 3 4 4 4 4 4 5 5 6 6 6 7 7 8 8 8 8 8 8 8 8 8 8 7 7 7 7 6
Wind_Speed
7 8 8 8 8 8 7 7 7 7 6 5 5 5 5 4 4 3 4 3 3 3 2 2 2 2 1 1 1 1 2 2 2 1 1 2 2 2 1 1 2 2 4
5 7 8 8 8 9 8 8 8 8 7 7 6 6 6 5 5 4 4 4 4 3 2 2 2 1 2 2 1 2 2 2 2 2 2 2 2 1 1 1 1 1 2
3 5 7 7 8 9 9 9 9 9 8 8 7 8 7 6 6 6 5 5 4 4 3 3 2 2 2 2 2 2 2 2 2 3 2 2 2 1 1 1 1 1 2
3 4 5 6 8 9 9 9 10 10 10 9 9 9 8 7 7 7 6 6 5 5 4 4 4 4 3 2 2 3 2 2 2 3 3 3 2 2 2 2 2 2 1
4 4 5 6 7 8 8 9 10 10 11 10 10 10 9 8 7 8 7 7 7 6 6 5 5 3 2 3 3 3 3 3 3 3 3 3 3 3 3 2 2 2 2
5 5 5 6 6 7 8 9 10 11 11 11 12 12 11 9 7 8 9 8 8 8 7 7 6 6 7 7 5 4 4 4 4 4 4 4 4 3 2 3 3 3 2
7 7 7 7 7 7 8 8 9 10 11 12 13 12 13 12 10 11 12 10 10 9 9 8 6 6 7 7 8 8 7 5 5 5 5 4 4 4 4 5 4 3 2
9 9 8 8 8 8 8 8 9 9 10 11 12 13 13 13 12 13 13 13 12 11 11 10 9 9 9 8 8 8 7 6 6 7 5 4 3 3 4 4 3 2 2
10 10 10 9 9 9 9 9 9 9 10 11 11 13 14 14 14 15 14 12 12 13 12 12 11 11 8 8 9 9 8 6 4 3 2 1 2 1 2 4 4 4 4
10 10 10 10 10 10 10 10 9 8 9 10 11 12 14 15 12 15 17 12 13 12 11 12 12 12 10 13 12 10 10 8 8 7 7 7 6 6 6 6 5 5 4
9 10 10 10 10 10 10 9 9 8 9 9 10 11 12 14 13 14 17 14 14 13 12 11 11 15 13 15 14 11 9 8 8 8 7 7 7 6 6 6 5 4 4
9 9 10 10 10 9 10 10 9 9 9 9 10 10 10 11 12 12 16 19 16 15 13 12 11 15 17 16 14 11 8 8 8 8 8 7 7 7 6 6 5 4 3
9 10 10 11 10 10 10 10 9 8 8 9 8 9 9 9 9 11 15 18 18 15 13 12 9 13 15 14 15 13 12 10 10 10 9 8 8 7 6 5 6 5 4
10 11 10 11 11 10 9 8 8 8 9 9 10 10 10 10 9 8 9 11 14 15 14 12 11 12 12 11 11 13 12 12 11 11 10 9 8 7 7 7 7 7 6
11 11 11 10 10 10 10 9 9 9 9 11 11 11 11 12 10 10 10 10 10 11 12 11 12 11 12 13 12 12 12 12 12 11 10 9 9 9 8 8 7 8 7
10 10 9 9 9 10 11 11 9 10 12 14 15 14 13 15 16 14 14 15 14 12 12 13 14 14 14 14 14 14 13 13 13 12 12 11 11 10 9 8 8 8 8
11 11 10 10 10 10 11 11 13 11 11 13 14 15 15 17 18 16 15 14 14 13 13 15 15 15 15 15 14 14 14 14 13 12 12 12 11 11 10 10 9 9 8
12 10 10 10 10 11 11 12 12 13 14 13 12 12 13 15 16 16 14 11 10 12 14 15 15 15 14 14 14 14 13 13 13 13 13 12 12 12 11 11 10 10 9
11 10 10 11 11 12 12 12 12 14 14 14 14 13 11 12 14 14 11 10 11 12 13 14 14 14 14 14 14 14 14 13 14 13 13 13 13 12 12 11 11 11 10
11 11 12 12 12 12 12 12 13 13 14 14 14 14 12 12 12 11 10 10 11 11 12 13 13 13 13 13 13 13 13 13 14 14 13 13 13 13 13 13 12 11 11
11 11 12 12 12 12 12 13 13 13 14 14 14 14 13 13 14 13 12 11 11 12 12 12 12 12 12 11 12 14 15 14 14 14 14 13 13 13 12 12 12 11 10
11 12 12 12 12 12 13 13 14 14 15 16 15 14 14 13 13 13 13 12 12 12 11 11 11 11 11 12 12 13 14 14 14 14 14 14 13 13 13 12 12 12 11
12 13 13 13 13 13 13 14 14 15 15 15 15 15 14 13 13 13 14 13 12 12 11 11 11 10 11 12 12 13 14 14 14 14 14 14 14 13 13 14 15 14 13
13 14 14 14 14 14 14 15 15 15 16 16 16 15 14 14 14 15 15 13 12 12 11 11 11 13 15 13 12 13 13 13 14 14 17 15 15 14 14 14 14 15 14
14 14 14 14 14 14 15 15 15 16 16 16 16 15 15 15 14 14 14 13 13 13 14 12 11 12 16 17 15 13 13 15 14 13 14 14 16 16 15 15 14 14 13
14 14 14 14 14 14 14 15 15 16 16 16 16 15 15 15 15 14 13 13 12 11 12 11 12 14 15 14 15 14 15 16 16 16 14 13 15 14 16 14 16 15 15
Wind_Direction
234 230 230 230 230 231 237 239 243 247 244 246 254 262 266 270 270 263 281 280 284 281 262 278 287 299 272 239 231 235 241 243 202 156 157 170 190 189 167 176 188 191 154
252 243 240 237 234 237 236 238 241 245 249 249 248 255 258 264 266 264 264 263 269 274 264 261 261 246 254 247 235 225 219 237 222 190 184 186 199 193 187 201 206 183 165
274 258 252 248 245 245 245 241 243 243 246 245 241 247 253 256 255 253 251 252 252 254 250 251 257 252 241 220 229 225 214 218 226 213 196 184 208 191 184 204 205 196 186
311 279 267 261 257 256 256 251 248 246 245 248 247 246 248 250 250 249 247 246 247 247 242 242 245 242 244 235 224 220 218 219 216 215 205 197 199 194 210 203 193 185 199
343 319 301 288 276 268 262 255 252 249 247 246 249 248 245 245 246 248 245 243 243 241 238 237 234 242 303 269 255 231 218 224 217 217 214 212 207 201 207 206 209 201 186
357 342 330 313 298 284 273 265 256 252 250 247 246 246 245 241 222 229 249 245 242 241 239 235 225 214 218 224 245 270 278 246 231 223 224 221 222 213 206 218 211 209 196
6 357 346 329 314 301 290 276 265 257 252 248 245 243 242 240 213 213 226 246 246 246 244 236 228 221 213 218 208 213 231 251 264 257 241 231 227 211 208 213 216 225 217
7 359 350 339 326 315 302 289 278 267 256 249 246 243 242 240 215 215 216 232 243 243 240 239 233 226 216 221 219 215 220 216 221 232 241 239 228 210 218 227 218 215 205
4 355 348 340 332 324 314 302 293 282 270 259 251 245 244 242 215 211 213 233 238 240 238 235 234 232 195 202 225 223 221 217 200 228 313 4 67 100 232 208 201 206 209
354 347 343 338 332 325 319 313 304 291 281 273 262 253 248 249 226 207 213 233 238 237 235 233 226 234 197 191 220 224 224 219 207 195 201 202 204 193 208 221 217 221 220
344 340 339 336 330 325 322 318 311 301 292 283 275 264 255 251 239 211 210 229 236 238 234 231 225 201 206 202 221 230 225 225 215 213 209 203 201 199 197 207 216 229 231
336 334 334 334 331 328 323 318 314 309 299 292 287 280 267 256 247 228 214 224 240 240 239 236 226 189 199 204 213 219 200 208 223 216 213 208 203 199 196 193 191 197 222
328 328 327 326 328 326 322 318 315 313 307 301 297 291 284 273 254 229 223 225 230 237 241 240 227 191 196 207 213 203 197 211 217 217 216 211 205 197 185 179 179 175 171
321 322 322 323 324 323 320 317 317 314 312 307 302 297 293 285 272 262 247 237 229 234 241 232 211 200 210 222 202 201 212 215 214 217 215 207 198 190 188 184 184 182 181
313 314 316 318 316 315 315 313 307 305 304 300 301 298 295 289 286 285 271 256 245 239 236 229 223 216 213 215 215 209 208 209 212 215 211 204 198 195 193 190 191 194 200
309 311 312 312 312 311 311 309 289 277 282 275 274 281 290 291 297 286 271 262 253 244 234 229 224 221 219 216 214 211 209 209 208 207 207 205 201 199 194 190 192 198 201
301 304 306 306 307 307 307 308 310 302 283 272 271 274 275 286 290 282 271 262 249 227 228 231 228 223 221 219 215 213 211 208 206 205 205 204 201 200 196 193 193 197 198
296 297 296 297 299 300 302 304 305 307 309 308 297 283 279 280 283 279 271 261 250 228 231 231 230 227 223 219 215 213 210 206 204 204 203 202 200 198 197 196 195 195 191
294 295 298 299 297 296 298 299 300 301 302 304 306 303 294 291 285 275 259 256 250 242 237 235 233 230 226 221 216 211 207 204 201 201 201 199 198 197 197 197 193 184 187
289 285 286 292 293 293 295 296 298 300 301 301 303 305 309 308 302 297 281 266 257 250 244 240 235 231 226 221 215 209 207 205 201 201 200 197 196 196 195 193 189 185 190
289 287 282 285 288 291 293 295 296 296 297 298 298 300 301 298 294 290 286 275 264 256 249 245 240 231 223 219 213 209 207 205 202 199 197 195 193 193 192 190 188 187 186
287 288 288 289 289 289 291 293 293 293 294 295 295 297 292 287 288 289 286 280 273 265 256 248 242 234 223 216 213 209 207 205 201 198 195 192 190 188 186 186 185 183 182
281 284 287 287 287 286 285 286 289 291 292 293 294 295 296 292 290 289 286 283 280 272 262 251 243 236 227 219 215 212 209 205 199 192 190 188 186 186 185 185 183 181 182
281 283 285 287 288 288 288 289 290 291 292 293 292 292 293 291 290 290 288 284 280 274 265 254 244 236 229 221 215 213 209 202 195 192 188 186 184 184 183 182 181 182 182
279 282 284 285 287 287 288 289 290 291 292 292 291 290 291 290 288 288 289 286 281 274 267 258 247 238 230 223 217 211 198 186 187 186 184 184 183 181 179 178 178 177 177
279 281 283 285 286 286 287 289 290 291 292 292 291 290 289 289 287 286 286 284 279 273 268 259 246 238 231 223 217 202 182 176 176 177 180 179 178 178 176 176 174 175 173
Height
1516 1517 1517 1517 1517 1517 1517 1517 1516 1516 1516 1516 1515 1515 1514 1513 1512 1510 1509 1508 1507 1507 1506 1505 1504 1503 1503 1503 1503 1503 1504 1505 1506 1507 1507 1508 1509 1510 1510 1511 1512 1513 1514
1513 1514 1514 1515 1515 1515 1515 1514 1514 1514 1514 1514 1513 1513 1512 1511 1510 1509 1508 1507 1506 1506 1505 1504 1504 1503 1502 1502 1502 1503 1503 1504 1505 1505 1506 1507 1508 1508 1508 1509 1510 1511 1512
1511 1511 1511 1512 1512 1512 1512 1512 1512 1512 1511 1511 1511 1510 1510 1510 1509 1507 1507 1506 1505 1505 1504 1503 1503 1502 1502 1502 1501 1502 1502 1503 1504 1505 1505 1505 1506 1506 1507 1507 1509 1509 1510
1510 1509 1509 1509 1509 1509 1509 1509 1509 1509 1508 1508 1508 1508 1507 1507 1507 1506 1505 1504 1504 1504 1503 1502 1502 1502 1502 1501 1501 1501 1501 1502 1502 1503 1504 1504 1504 1504 1505 1506 1507 1508 1509
1509 1508 1507 1506 1506 1505 1505 1505 1504 1504 1504 1504 1505 1504 1504 1504 1504 1504 1504 1503 1502 1502 1501 1501 1500 1500 1500 1500 1500 1501 1500 1501 1501 1502 1502 1503 1503 1503 1504 1505 1506 1506 1507
1508 1506 1505 1504 1503 1502 1501 1501 1500 1500 1500 1500 1500 1500 1500 1500 1500 1500 1500 1500 1500 1500 1500 1499 1499 1498 1498 1498 1498 1498 1499 1499 1500 1500 1500 1501 1501 1502 1502 1503 1504 1505 1506
1507 1505 1503 1502 1500 1499 1497 1496 1495 1495 1495 1494 1494 1495 1495 1495 1496 1496 1496 1497 1497 1497 1497 1497 1497 1496 1496 1496 1496 1496 1496 1497 1497 1498 1499 1499 1499 1499 1500 1501 1502 1503 1504
1506 1504 1502 1499 1497 1496 1494 1492 1491 1490 1489 1488 1488 1489 1489 1490 1490 1491 1492 1492 1493 1493 1493 1493 1493 1493 1493 1494 1494 1494 1494 1494 1495 1495 1496 1497 1497 1497 1498 1499 1499 1500 1501
1505 1502 1500 1497 1495 1492 1490 1488 1487 1485 1484 1483 1482 1482 1482 1483 1485 1486 1487 1487 1488 1488 1488 1489 1489 1490 1489 1490 1491 1491 1492 1492 1492 1492 1493 1493 1493 1494 1495 1496 1497 1498 1499
1503 1500 1497 1495 1492 1490 1487 1485 1482 1480 1478 1477 1476 1475 1476 1476 1478 1479 1481 1481 1482 1483 1483 1483 1483 1484 1485 1485 1487 1488 1488 1489 1489 1489 1489 1490 1490 1491 1492 1493 1495 1496 1497
1500 1498 1495 1492 1489 1487 1484 1481 1478 1476 1474 1472 1470 1469 1469 1469 1470 1471 1473 1474 1476 1477 1477 1477 1478 1478 1479 1480 1482 1483 1484 1485 1486 1486 1487 1487 1487 1488 1489 1490 1491 1492 1494
1497 1495 1492 1489 1486 1483 1480 1477 1474 1472 1469 1467 1465 1463 1462 1462 1462 1463 1464 1466 1468 1469 1470 1471 1472 1472 1473 1475 1476 1477 1479 1480 1481 1482 1483 1483 1484 1485 1486 1487 1488 1489 1490
1495 1492 1489 1486 1483 1480 1477 1473 1471 1468 1465 1463 1460 1458 1456 1456 1455 1455 1456 1457 1459 1461 1462 1463 1465 1466 1467 1468 1469 1471 1473 1474 1475 1477 1478 1479 1480 1481 1482 1483 1484 1485 1486
1492 1489 1485 1483 1479 1476 1473 1470 1467 1464 1461 1458 1456 1453 1451 1450 1449 1449 1448 1449 1450 1452 1454 1455 1457 1458 1460 1461 1462 1464 1465 1467 1469 1471 1472 1474 1475 1476 1477 1478 1480 1481 1482
1488 1485 1482 1479 1475 1472 1469 1466 1462 1460 1457 1454 1451 1448 1446 1443 1442 1442 1441 1441 1442 1443 1445 1447 1448 1449 1450 1452 1454 1456 1457 1460 1461 1464 1466 1467 1469 1470 1472 1474 1475 1477 1478
1484 1481 1478 1474 1471 1467 1464 1461 1457 1454 1451 1448 1445 1442 1439 1436 1434 1433 1433 1433 1434 1435 1437 1437 1438 1439 1441 1443 1445 1447 1449 1451 1453 1456 1458 1461 1462 1464 1466 1468 1470 1471 1473
1479 1476 1473 1470 1466 1463 1459 1455 1451 1447 1444 1441 1437 1434 1431 1428 1426 1425 1424 1424 1424 1425 1426 1427 1428 1430 1432 1434 1436 1438 1440 1443 1445 1448 1450 1453 1455 1457 1460 1461 1463 1466 1468
1474 1471 1468 1464 1461 1458 1455 1451 1446 1442 1438 1433 1430 1427 1424 1421 1418 1416 1415 1415 1414 1415 1415 1417 1418 1420 1422 1424 1427 1429 1432 1434 1437 1439 1442 1445 1447 1450 1452 1455 1457 1459 1461
1468 1466 1463 1459 1456 1453 1449 1446 1442 1437 1433 1428 1424 1421 1418 1414 1411 1408 1407 1406 1405 1405 1406 1407 1409 1411 1413 1415 1417 1420 1422 1425 1427 1430 1433 1436 1439 1442 1445 1448 1450 1453 1455
1462 1459 1456 1453 1450 1447 1443 1440 1436 1432 1427 1423 1419 1415 1411 1408 1404 1401 1399 1398 1397 1397 1397 1398 1399 1401 1403 1405 1408 1410 1413 1416 1418 1421 1424 1428 1431 1434 1437 1441 1443 1446 1449
1456 1453 1450 1447 1444 1441 1437 1433 1430 1425 1421 1417 1413 1409 1405 1402 1398 1395 1392 1390 1390 1389 1389 1389 1390 1391 1393 1396 1398 1400 1403 1406 1409 1412 1415 1419 1423 1426 1430 1433 1437 1440 1443
1449 1446 1443 1440 1437 1433 1430 1427 1423 1419 1414 1410 1406 1402 1398 1395 1391 1388 1385 1383 1382 1381 1380 1380 1381 1382 1383 1386 1388 1391 1393 1396 1399 1403 1406 1410 1414 1418 1422 1426 1429 1433 1436
1442 1439 1436 1433 1430 1426 1422 1419 1416 1412 1407 1403 1399 1395 1391 1387 1384 1380 1377 1375 1373 1372 1371 1371 1371 1372 1374 1376 1378 1381 1384 1387 1390 1394 1398 1401 1406 1410 1414 1418 1422 1426 1429
1435 1432 1429 1425 1422 1418 1415 1411 1408 1404 1400 1396 1392 1387 1383 1379 1376 1372 1369 1366 1364 1363 1361 1361 1362 1363 1364 1366 1368 1371 1374 1378 1382 1386 1390 1394 1398 1402 1406 1411 1415 1419 1423
1427 1424 1421 1418 1414 1410 1407 1403 1399 1396 1392 1388 1384 1379 1375 1371 1367 1364 1361 1358 1355 1354 1352 1352 1352 1353 1355 1357 1359 1362 1365 1369 1373 1377 1382 1386 1390 1394 1399 1403 1408 1412 1416
1419 1416 1413 1409 1406 1402 1399 1395 1391 1387 1383 1379 1375 1371 1367 1363 1359 1355 1352 1349 1347 1345 1343 1343 1343 1344 1345 1347 1350 1353 1357 1361 1365 1370 1374 1378 1383 1387 1392 1397 1401 1406 1410